QPF
0.05 0.03 0.03 0.02 0.01 0.01 0.02 0.02 0.03 0.03 0.03 0.02 0.04 0.05 0.06 0.07 0.07 0.04 0.05 0.03 0.02 0.02 0.02 0.02 0.01 0.01 0.01 0.02 0.02 0.01 0.01 0.02 0.02 0.05 0.07 0.07 0.07 0.07 0.06 0.05 0.04 0.03 0.03
0.05 0.05 0.04 0.03 0.02 0.02 0.02 0.03 0.04 0.06 0.05 0.05 0.07 0.08 0.07 0.06 0.05 0.04 0.05 0.05 0.04 0.03 0.02 0.02 0.01 0.01 0.01 0.01 0.01 0.01 0.01 0.01 0.01 0.02 0.03 0.04 0.06 0.07 0.06 0.05 0.04 0.03 0.03
0.03 0.03 0.03 0.02 0.02 0.02 0.02 0.03 0.04 0.06 0.06 0.06 0.08 0.10 0.10 0.08 0.07 0.06 0.05 0.04 0.03 0.03 0.03 0.02 0.01 0.01 0.00 0.01 0.02 0.01 0.01 0.01 0.01 0.01 0.02 0.02 0.02 0.02 0.04 0.04 0.04 0.03 0.02
0.02 0.04 0.03 0.02 0.02 0.01 0.02 0.03 0.04 0.06 0.06 0.07 0.08 0.08 0.08 0.06 0.04 0.04 0.03 0.03 0.03 0.03 0.02 0.02 0.01 0.00 0.01 0.01 0.01 0.01 0.01 0.01 0.02 0.01 0.02 0.02 0.01 0.02 0.01 0.02 0.03 0.03 0.03
0.03 0.04 0.02 0.01 0.02 0.02 0.03 0.04 0.05 0.05 0.07 0.08 0.06 0.05 0.05 0.04 0.03 0.04 0.05 0.04 0.04 0.03 0.02 0.02 0.01 0.01 0.01 0.00 0.01 0.01 0.02 0.02 0.01 0.01 0.02 0.02 0.02 0.02 0.01 0.01 0.02 0.04 0.04
0.02 0.02 0.03 0.03 0.02 0.04 0.04 0.03 0.03 0.03 0.05 0.07 0.07 0.06 0.05 0.04 0.03 0.04 0.04 0.04 0.04 0.04 0.04 0.03 0.02 0.02 0.02 0.01 0.01 0.01 0.02 0.01 0.01 0.01 0.03 0.04 0.03 0.02 0.01 0.01 0.01 0.02 0.02
0.03 0.03 0.03 0.03 0.03 0.04 0.03 0.02 0.02 0.03 0.04 0.06 0.07 0.07 0.07 0.06 0.04 0.04 0.04 0.03 0.04 0.04 0.04 0.05 0.05 0.04 0.02 0.01 0.01 0.01 0.02 0.01 0.01 0.01 0.02 0.03 0.03 0.02 0.02 0.02 0.01 0.01 0.01
0.02 0.02 0.01 0.01 0.03 0.03 0.03 0.04 0.04 0.05 0.08 0.08 0.10 0.10 0.11 0.10 0.10 0.07 0.05 0.06 0.05 0.04 0.04 0.05 0.06 0.04 0.03 0.02 0.01 0.02 0.02 0.02 0.02 0.01 0.01 0.01 0.02 0.02 0.03 0.03 0.02 0.01 0.01
0.01 0.01 0.01 0.01 0.02 0.02 0.02 0.03 0.02 0.03 0.06 0.06 0.09 0.10 0.13 0.14 0.16 0.13 0.07 0.06 0.05 0.04 0.05 0.05 0.06 0.06 0.05 0.04 0.05 0.05 0.03 0.03 0.02 0.02 0.01 0.01 0.01 0.02 0.02 0.03 0.02 0.02 0.02
0.01 0.03 0.03 0.03 0.02 0.01 0.01 0.02 0.02 0.03 0.05 0.05 0.06 0.06 0.11 0.12 0.12 0.12 0.09 0.08 0.06 0.07 0.07 0.09 0.09 0.09 0.09 0.10 0.10 0.07 0.05 0.03 0.02 0.01 0.01 0.01 0.01 0.01 0.01 0.02 0.02 0.03 0.02
0.02 0.03 0.03 0.04 0.03 0.02 0.02 0.04 0.05 0.04 0.04 0.05 0.05 0.05 0.07 0.09 0.09 0.08 0.07 0.09 0.10 0.09 0.10 0.12 0.14 0.13 0.13 0.14 0.10 0.06 0.04 0.03 0.02 0.01 0.01 0.01 0.01 0.01 0.01 0.02 0.03 0.03 0.02
0.02 0.03 0.04 0.05 0.05 0.04 0.04 0.05 0.05 0.04 0.04 0.04 0.05 0.06 0.07 0.06 0.06 0.05 0.07 0.09 0.11 0.12 0.11 0.12 0.12 0.12 0.12 0.12 0.07 0.05 0.03 0.03 0.02 0.02 0.02 0.01 0.01 0.01 0.01 0.02 0.03 0.03 0.02
0.02 0.02 0.04 0.04 0.06 0.05 0.04 0.04 0.04 0.03 0.03 0.04 0.04 0.05 0.06 0.05 0.05 0.07 0.08 0.07 0.08 0.09 0.10 0.09 0.11 0.14 0.11 0.08 0.07 0.06 0.04 0.03 0.03 0.04 0.04 0.03 0.02 0.02 0.01 0.01 0.02 0.03 0.03
0.02 0.01 0.02 0.02 0.03 0.03 0.03 0.03 0.03 0.02 0.03 0.03 0.05 0.06 0.06 0.06 0.05 0.05 0.05 0.06 0.06 0.07 0.09 0.09 0.09 0.12 0.11 0.09 0.07 0.06 0.06 0.04 0.04 0.04 0.05 0.04 0.03 0.02 0.02 0.02 0.01 0.02 0.03
0.02 0.02 0.01 0.02 0.02 0.03 0.03 0.02 0.02 0.02 0.02 0.03 0.04 0.05 0.08 0.10 0.10 0.08 0.07 0.06 0.05 0.05 0.08 0.09 0.09 0.11 0.10 0.08 0.08 0.09 0.08 0.06 0.05 0.04 0.05 0.05 0.04 0.03 0.04 0.03 0.02 0.04 0.04
0.02 0.03 0.02 0.02 0.03 0.04 0.04 0.03 0.02 0.03 0.03 0.04 0.05 0.07 0.10 0.14 0.16 0.14 0.12 0.10 0.08 0.07 0.09 0.07 0.06 0.07 0.06 0.07 0.11 0.11 0.10 0.09 0.07 0.06 0.07 0.06 0.07 0.06 0.07 0.06 0.06 0.05 0.05
0.01 0.01 0.01 0.02 0.03 0.05 0.07 0.07 0.05 0.05 0.05 0.05 0.06 0.08 0.12 0.17 0.20 0.19 0.16 0.15 0.11 0.09 0.09 0.06 0.06 0.05 0.06 0.10 0.11 0.11 0.12 0.13 0.11 0.10 0.09 0.09 0.07 0.07 0.07 0.07 0.07 0.05 0.05
0.03 0.01 0.01 0.02 0.04 0.06 0.07 0.08 0.09 0.08 0.07 0.07 0.07 0.09 0.12 0.16 0.19 0.20 0.18 0.17 0.16 0.11 0.09 0.08 0.08 0.07 0.05 0.07 0.08 0.10 0.12 0.14 0.14 0.12 0.10 0.09 0.09 0.08 0.07 0.06 0.05 0.04 0.04
0.03 0.02 0.01 0.02 0.05 0.08 0.07 0.07 0.08 0.10 0.09 0.08 0.08 0.09 0.12 0.16 0.18 0.19 0.19 0.17 0.13 0.10 0.09 0.08 0.08 0.07 0.06 0.07 0.08 0.08 0.09 0.11 0.13 0.13 0.11 0.09 0.08 0.07 0.06 0.06 0.05 0.04 0.04
0.02 0.01 0.02 0.02 0.03 0.09 0.09 0.08 0.08 0.09 0.09 0.08 0.07 0.07 0.08 0.11 0.12 0.15 0.16 0.15 0.12 0.10 0.09 0.08 0.07 0.06 0.05 0.05 0.05 0.05 0.05 0.06 0.07 0.07 0.08 0.08 0.07 0.06 0.05 0.06 0.06 0.05 0.04
0.03 0.01 0.02 0.02 0.02 0.04 0.11 0.15 0.12 0.10 0.09 0.09 0.08 0.07 0.07 0.08 0.10 0.12 0.13 0.13 0.12 0.12 0.09 0.06 0.04 0.04 0.03 0.03 0.03 0.04 0.05 0.06 0.06 0.05 0.05 0.06 0.08 0.08 0.08 0.07 0.05 0.04 0.05
0.03 0.02 0.03 0.02 0.02 0.02 0.05 0.11 0.12 0.11 0.09 0.09 0.09 0.08 0.07 0.08 0.09 0.10 0.11 0.12 0.12 0.10 0.09 0.07 0.05 0.04 0.04 0.04 0.05 0.05 0.05 0.06 0.06 0.07 0.07 0.08 0.10 0.10 0.09 0.08 0.07 0.07 0.08
0.04 0.04 0.03 0.03 0.02 0.02 0.03 0.05 0.07 0.09 0.09 0.09 0.08 0.07 0.07 0.07 0.08 0.08 0.09 0.11 0.10 0.08 0.07 0.07 0.05 0.05 0.05 0.04 0.05 0.06 0.06 0.05 0.05 0.06 0.09 0.10 0.12 0.12 0.11 0.11 0.10 0.10 0.09
0.04 0.07 0.04 0.04 0.03 0.03 0.03 0.05 0.06 0.07 0.09 0.11 0.10 0.09 0.07 0.07 0.07 0.07 0.07 0.07 0.07 0.08 0.06 0.06 0.05 0.06 0.06 0.06 0.07 0.09 0.09 0.11 0.11 0.10 0.10 0.10 0.10 0.09 0.09 0.09 0.09 0.07 0.06
0.05 0.05 0.04 0.04 0.04 0.05 0.05 0.06 0.07 0.08 0.08 0.07 0.07 0.07 0.06 0.07 0.08 0.07 0.08 0.08 0.06 0.08 0.08 0.08 0.09 0.09 0.08 0.10 0.11 0.12 0.12 0.14 0.14 0.13 0.11 0.10 0.09 0.08 0.08 0.07 0.06 0.05 0.05
0.07 0.08 0.07 0.06 0.06 0.05 0.06 0.06 0.07 0.07 0.07 0.06 0.04 0.04 0.04 0.05 0.05 0.06 0.07 0.09 0.09 0.10 0.10 0.09 0.08 0.07 0.07 0.08 0.09 0.11 0.12 0.13 0.13 0.12 0.10 0.09 0.09 0.08 0.07 0.06 0.05 0.05 0.05
MSLP
1007.53 1007.77 1007.99 1008.20 1008.42 1008.65 1008.94 1009.29 1009.73 1010.24 1010.79 1011.36 1011.90 1012.38 1012.79 1013.11 1013.35 1013.56 1013.75 1013.96 1014.22 1014.54 1014.92 1015.34 1015.78 1016.19 1016.57 1016.89 1017.15 1017.36 1017.54 1017.71 1017.87 1018.03 1018.19 1018.33 1018.44 1018.49 1018.47 1018.39 1018.26 1018.11 1017.96
1007.06 1007.34 1007.60 1007.82 1008.03 1008.24 1008.51 1008.86 1009.31 1009.85 1010.47 1011.11 1011.73 1012.27 1012.71 1013.02 1013.23 1013.37 1013.49 1013.64 1013.86 1014.16 1014.56 1015.02 1015.52 1016.01 1016.45 1016.83 1017.14 1017.38 1017.56 1017.73 1017.89 1018.05 1018.22 1018.37 1018.50 1018.57 1018.57 1018.49 1018.36 1018.19 1018.01
1006.56 1006.89 1007.20 1007.46 1007.68 1007.90 1008.16 1008.49 1008.95 1009.51 1010.17 1010.86 1011.53 1012.12 1012.59 1012.91 1013.11 1013.21 1013.28 1013.38 1013.55 1013.83 1014.23 1014.71 1015.25 1015.79 1016.28 1016.70 1017.04 1017.29 1017.49 1017.66 1017.82 1017.99 1018.17 1018.35 1018.50 1018.60 1018.63 1018.58 1018.46 1018.29 1018.09
1006.04 1006.44 1006.81 1007.13 1007.39 1007.62 1007.87 1008.19 1008.63 1009.18 1009.84 1010.55 1011.26 1011.88 1012.38 1012.72 1012.92 1013.02 1013.07 1013.14 1013.29 1013.55 1013.93 1014.42 1014.97 1015.52 1016.04 1016.49 1016.84 1017.12 1017.33 1017.51 1017.69 1017.87 1018.07 1018.28 1018.46 1018.59 1018.65 1018.62 1018.52 1018.35 1018.16
1005.56 1006.02 1006.47 1006.86 1007.16 1007.41 1007.65 1007.94 1008.33 1008.84 1009.47 1010.16 1010.87 1011.51 1012.04 1012.41 1012.64 1012.76 1012.82 1012.90 1013.04 1013.29 1013.65 1014.13 1014.66 1015.22 1015.74 1016.19 1016.56 1016.85 1017.09 1017.29 1017.49 1017.70 1017.92 1018.15 1018.36 1018.52 1018.60 1018.60 1018.51 1018.36 1018.17
1005.15 1005.67 1006.20 1006.65 1007.00 1007.26 1007.47 1007.71 1008.04 1008.48 1009.04 1009.68 1010.36 1011.00 1011.55 1011.96 1012.24 1012.41 1012.52 1012.62 1012.77 1013.02 1013.37 1013.82 1014.33 1014.86 1015.37 1015.82 1016.20 1016.51 1016.77 1017.00 1017.23 1017.47 1017.72 1017.97 1018.19 1018.37 1018.47 1018.48 1018.41 1018.28 1018.09
1004.86 1005.43 1006.02 1006.52 1006.90 1007.16 1007.34 1007.51 1007.75 1008.09 1008.55 1009.11 1009.74 1010.36 1010.93 1011.38 1011.72 1011.96 1012.13 1012.28 1012.47 1012.72 1013.06 1013.48 1013.96 1014.46 1014.95 1015.39 1015.77 1016.10 1016.39 1016.66 1016.92 1017.18 1017.46 1017.72 1017.96 1018.14 1018.25 1018.28 1018.23 1018.10 1017.93
1004.72 1005.32 1005.94 1006.48 1006.87 1007.11 1007.24 1007.33 1007.46 1007.69 1008.04 1008.51 1009.06 1009.65 1010.21 1010.71 1011.11 1011.42 1011.67 1011.89 1012.11 1012.38 1012.72 1013.12 1013.56 1014.03 1014.48 1014.91 1015.30 1015.65 1015.96 1016.26 1016.56 1016.85 1017.14 1017.42 1017.66 1017.85 1017.96 1018.00 1017.96 1017.86 1017.71
1004.74 1005.36 1005.98 1006.52 1006.89 1007.09 1007.17 1007.17 1007.20 1007.31 1007.54 1007.90 1008.38 1008.92 1009.47 1009.99 1010.45 1010.83 1011.15 1011.44 1011.71 1012.01 1012.35 1012.73 1013.14 1013.58 1014.01 1014.42 1014.81 1015.18 1015.52 1015.85 1016.17 1016.48 1016.79 1017.07 1017.31 1017.50 1017.62 1017.67 1017.66 1017.59 1017.47
1004.94 1005.53 1006.13 1006.63 1006.96 1007.11 1007.12 1007.04 1006.97 1006.97 1007.09 1007.36 1007.75 1008.23 1008.76 1009.29 1009.78 1010.22 1010.61 1010.95 1011.28 1011.61 1011.96 1012.33 1012.72 1013.14 1013.55 1013.95 1014.34 1014.72 1015.08 1015.43 1015.77 1016.10 1016.41 1016.70 1016.93 1017.12 1017.25 1017.32 1017.34 1017.31 1017.25
1005.28 1005.82 1006.37 1006.81 1007.07 1007.16 1007.10 1006.95 1006.79 1006.71 1006.74 1006.91 1007.22 1007.64 1008.13 1008.65 1009.15 1009.63 1010.06 1010.45 1010.82 1011.19 1011.56 1011.94 1012.33 1012.73 1013.14 1013.54 1013.93 1014.32 1014.70 1015.06 1015.41 1015.75 1016.06 1016.33 1016.56 1016.75 1016.89 1016.98 1017.04 1017.06 1017.06
1005.70 1006.19 1006.66 1007.01 1007.20 1007.22 1007.09 1006.89 1006.68 1006.53 1006.49 1006.58 1006.82 1007.17 1007.60 1008.08 1008.58 1009.06 1009.51 1009.95 1010.36 1010.76 1011.16 1011.56 1011.97 1012.38 1012.79 1013.20 1013.60 1014.00 1014.39 1014.76 1015.11 1015.44 1015.74 1016.00 1016.23 1016.41 1016.55 1016.67 1016.76 1016.84 1016.89
1006.16 1006.58 1006.96 1007.22 1007.33 1007.28 1007.11 1006.87 1006.62 1006.43 1006.34 1006.38 1006.54 1006.82 1007.18 1007.61 1008.06 1008.53 1008.99 1009.44 1009.88 1010.32 1010.76 1011.20 1011.64 1012.08 1012.51 1012.94 1013.36 1013.77 1014.17 1014.54 1014.89 1015.21 1015.49 1015.74 1015.94 1016.11 1016.25 1016.37 1016.49 1016.61 1016.72
1006.58 1006.94 1007.23 1007.40 1007.44 1007.34 1007.14 1006.88 1006.62 1006.42 1006.30 1006.28 1006.38 1006.58 1006.87 1007.22 1007.61 1008.04 1008.49 1008.94 1009.41 1009.89 1010.38 1010.86 1011.35 1011.83 1012.30 1012.75 1013.19 1013.62 1014.02 1014.40 1014.74 1015.04 1015.31 1015.52 1015.70 1015.85 1015.97 1016.09 1016.21 1016.34 1016.48
1006.91 1007.22 1007.44 1007.54 1007.52 1007.39 1007.18 1006.93 1006.68 1006.47 1006.34 1006.29 1006.33 1006.45 1006.65 1006.92 1007.24 1007.62 1008.03 1008.49 1008.98 1009.49 1010.02 1010.55 1011.08 1011.61 1012.12 1012.60 1013.07 1013.51 1013.92 1014.30 1014.64 1014.93 1015.17 1015.36 1015.51 1015.62 1015.70 1015.79 1015.89 1016.00 1016.14
1007.12 1007.41 1007.58 1007.64 1007.59 1007.45 1007.25 1007.02 1006.80 1006.60 1006.46 1006.38 1006.37 1006.42 1006.54 1006.72 1006.97 1007.29 1007.67 1008.11 1008.61 1009.14 1009.71 1010.28 1010.86 1011.42 1011.96 1012.47 1012.96 1013.41 1013.83 1014.21 1014.55 1014.83 1015.06 1015.22 1015.33 1015.40 1015.44 1015.48 1015.53 1015.60 1015.71
1007.24 1007.52 1007.68 1007.72 1007.67 1007.54 1007.37 1007.17 1006.98 1006.82 1006.68 1006.58 1006.52 1006.51 1006.55 1006.66 1006.85 1007.11 1007.45 1007.88 1008.37 1008.92 1009.50 1010.09 1010.68 1011.26 1011.81 1012.33 1012.83 1013.29 1013.72 1014.10 1014.44 1014.72 1014.94 1015.09 1015.18 1015.20 1015.19 1015.17 1015.15 1015.17 1015.22
1007.31 1007.60 1007.77 1007.82 1007.79 1007.69 1007.56 1007.41 1007.26 1007.12 1006.99 1006.88 1006.79 1006.74 1006.73 1006.78 1006.92 1007.14 1007.45 1007.86 1008.34 1008.87 1009.45 1010.03 1010.61 1011.17 1011.70 1012.20 1012.68 1013.13 1013.56 1013.95 1014.30 1014.60 1014.82 1014.97 1015.04 1015.04 1014.99 1014.91 1014.83 1014.77 1014.76
1007.39 1007.72 1007.91 1008.00 1008.00 1007.94 1007.85 1007.75 1007.63 1007.52 1007.40 1007.29 1007.20 1007.12 1007.09 1007.12 1007.23 1007.43 1007.73 1008.11 1008.57 1009.08 1009.61 1010.15 1010.68 1011.18 1011.66 1012.11 1012.54 1012.97 1013.38 1013.78 1014.14 1014.46 1014.71 1014.88 1014.96 1014.96 1014.89 1014.77 1014.64 1014.52 1014.44
1007.57 1007.93 1008.16 1008.28 1008.32 1008.30 1008.25 1008.18 1008.10 1008.02 1007.92 1007.83 1007.74 1007.68 1007.66 1007.70 1007.81 1008.02 1008.31 1008.68 1009.11 1009.57 1010.04 1010.51 1010.94 1011.35 1011.74 1012.11 1012.48 1012.86 1013.24 1013.64 1014.02 1014.37 1014.66 1014.87 1014.99 1015.01 1014.94 1014.81 1014.65 1014.50 1014.38
1007.91 1008.30 1008.55 1008.70 1008.77 1008.78 1008.76 1008.72 1008.66 1008.60 1008.53 1008.47 1008.41 1008.39 1008.41 1008.49 1008.64 1008.88 1009.18 1009.55 1009.95 1010.36 1010.75 1011.12 1011.44 1011.73 1012.00 1012.27 1012.55 1012.86 1013.22 1013.60 1014.00 1014.39 1014.73 1014.99 1015.17 1015.23 1015.20 1015.09 1014.94 1014.77 1014.63
1008.44 1008.83 1009.10 1009.26 1009.34 1009.36 1009.35 1009.32 1009.28 1009.24 1009.20 1009.18 1009.18 1009.22 1009.31 1009.46 1009.68 1009.97 1010.31 1010.68 1011.05 1011.41 1011.72 1011.98 1012.18 1012.34 1012.49 1012.64 1012.83 1013.07 1013.38 1013.75 1014.17 1014.58 1014.98 1015.31 1015.54 1015.68 1015.70 1015.64 1015.51 1015.37 1015.23
1009.15 1009.52 1009.77 1009.92 1009.99 1010.01 1009.99 1009.96 1009.93 1009.91 1009.91 1009.94 1010.01 1010.13 1010.31 1010.55 1010.86 1011.22 1011.61 1011.99 1012.35 1012.66 1012.90 1013.06 1013.15 1013.19 1013.22 1013.27 1013.36 1013.54 1013.81 1014.16 1014.58 1015.02 1015.46 1015.84 1016.15 1016.34 1016.43 1016.43 1016.35 1016.23 1016.11
1009.99 1010.32 1010.53 1010.65 1010.69 1010.68 1010.65 1010.61 1010.58 1010.58 1010.62 1010.71 1010.86 1011.07 1011.35 1011.70 1012.11 1012.54 1012.98 1013.40 1013.75 1014.03 1014.21 1014.30 1014.30 1014.25 1014.19 1014.15 1014.17 1014.30 1014.52 1014.86 1015.27 1015.73 1016.19 1016.61 1016.96 1017.22 1017.36 1017.40 1017.37 1017.29 1017.19
1010.90 1011.17 1011.32 1011.39 1011.39 1011.35 1011.29 1011.24 1011.22 1011.24 1011.33 1011.48 1011.71 1012.02 1012.40 1012.85 1013.34 1013.85 1014.35 1014.79 1015.16 1015.42 1015.57 1015.61 1015.56 1015.46 1015.34 1015.25 1015.24 1015.32 1015.52 1015.83 1016.23 1016.69 1017.16 1017.59 1017.96 1018.24 1018.42 1018.49 1018.49 1018.43 1018.34
1011.79 1011.99 1012.09 1012.11 1012.06 1011.99 1011.92 1011.87 1011.85 1011.91 1012.04 1012.25 1012.56 1012.95 1013.42 1013.96 1014.53 1015.10 1015.64 1016.11 1016.49 1016.76 1016.90 1016.92 1016.86 1016.74 1016.61 1016.51 1016.49 1016.56 1016.75 1017.04 1017.43 1017.86 1018.30 1018.72 1019.08 1019.35 1019.53 1019.61 1019.61 1019.55 1019.45
Thickness
5813 5813 5810 5807 5802 5797 5793 5789 5785 5781 5778 5773 5768 5763 5760 5759 5759 5759 5759 5758 5757 5756 5754 5753 5752 5751 5749 5747 5746 5744 5741 5739 5739 5734 5731 5732 5734 5734 5734 5733 5732 5730 5729
5807 5808 5807 5805 5801 5796 5793 5789 5785 5782 5779 5775 5770 5765 5762 5759 5759 5759 5758 5757 5756 5755 5754 5752 5751 5750 5748 5746 5745 5743 5739 5738 5738 5732 5726 5722 5724 5730 5734 5734 5733 5732 5730
5811 5808 5806 5804 5801 5797 5794 5791 5787 5783 5779 5775 5769 5764 5759 5757 5755 5755 5755 5756 5756 5755 5753 5752 5751 5749 5748 5746 5744 5743 5740 5735 5736 5736 5729 5720 5716 5722 5729 5733 5734 5733 5732
5814 5810 5808 5805 5803 5801 5797 5793 5787 5783 5779 5774 5769 5763 5758 5754 5755 5755 5755 5755 5755 5754 5753 5752 5751 5749 5748 5746 5745 5744 5742 5738 5734 5734 5735 5732 5729 5722 5720 5727 5731 5733 5732
5816 5813 5811 5809 5806 5802 5797 5792 5787 5782 5778 5775 5770 5764 5760 5757 5756 5755 5754 5753 5753 5753 5753 5752 5750 5749 5748 5747 5745 5744 5742 5740 5737 5734 5733 5732 5730 5728 5721 5719 5724 5728 5732
5816 5814 5812 5808 5804 5801 5796 5791 5786 5781 5778 5774 5770 5766 5761 5757 5754 5753 5751 5751 5751 5752 5752 5752 5750 5749 5748 5747 5746 5745 5743 5741 5739 5737 5735 5732 5729 5726 5724 5720 5721 5723 5729
5815 5810 5807 5804 5801 5798 5795 5791 5785 5781 5778 5774 5771 5768 5764 5759 5756 5754 5753 5751 5750 5750 5751 5751 5749 5748 5748 5747 5746 5744 5742 5741 5739 5738 5736 5735 5734 5733 5729 5724 5721 5722 5726
5814 5811 5810 5807 5803 5799 5795 5791 5786 5782 5779 5775 5772 5769 5765 5761 5759 5757 5755 5754 5753 5753 5752 5751 5749 5749 5748 5747 5745 5743 5742 5741 5740 5739 5737 5736 5735 5734 5732 5729 5724 5719 5720
5812 5811 5810 5807 5804 5800 5796 5793 5788 5783 5779 5776 5773 5768 5766 5762 5759 5758 5756 5755 5754 5754 5752 5751 5749 5748 5747 5745 5744 5742 5741 5740 5739 5738 5737 5735 5736 5735 5734 5733 5730 5722 5715
5811 5810 5809 5807 5804 5802 5798 5794 5789 5784 5781 5777 5773 5770 5767 5764 5761 5759 5757 5755 5754 5754 5752 5751 5749 5747 5746 5744 5743 5741 5740 5738 5737 5737 5735 5734 5734 5734 5734 5733 5731 5728 5723
5808 5808 5807 5806 5803 5800 5796 5791 5788 5784 5780 5777 5774 5771 5768 5765 5761 5759 5757 5756 5754 5753 5751 5750 5748 5746 5744 5743 5741 5740 5739 5736 5735 5735 5734 5733 5733 5732 5731 5731 5730 5728 5725
5805 5806 5805 5802 5798 5795 5793 5789 5787 5784 5781 5778 5775 5771 5768 5765 5761 5759 5758 5756 5754 5753 5751 5749 5747 5745 5743 5742 5740 5738 5737 5735 5733 5733 5732 5731 5732 5730 5729 5728 5727 5726 5726
5799 5799 5799 5797 5794 5793 5791 5788 5786 5783 5781 5778 5774 5770 5767 5764 5761 5760 5758 5756 5754 5752 5751 5749 5746 5744 5743 5740 5739 5738 5736 5735 5733 5732 5731 5730 5729 5727 5727 5726 5725 5725 5725
5793 5793 5791 5791 5791 5790 5789 5786 5784 5782 5779 5776 5772 5769 5766 5764 5762 5760 5758 5755 5753 5751 5749 5747 5746 5744 5742 5740 5739 5737 5734 5733 5732 5732 5731 5730 5728 5726 5725 5723 5722 5722 5720
5787 5787 5786 5786 5787 5786 5784 5783 5781 5780 5777 5773 5770 5768 5766 5764 5761 5759 5756 5754 5752 5750 5748 5745 5743 5742 5740 5739 5737 5735 5733 5731 5729 5729 5729 5728 5727 5727 5725 5723 5720 5719 5716
5783 5784 5784 5784 5783 5783 5781 5780 5778 5777 5774 5770 5768 5766 5763 5761 5758 5756 5753 5750 5748 5747 5745 5743 5741 5739 5739 5738 5736 5734 5731 5730 5727 5725 5725 5725 5724 5724 5722 5721 5720 5718 5715
5778 5779 5781 5781 5781 5780 5780 5777 5776 5774 5771 5768 5766 5764 5761 5758 5756 5754 5750 5747 5745 5743 5741 5740 5738 5736 5736 5735 5733 5731 5729 5727 5725 5723 5721 5721 5721 5720 5718 5717 5716 5715 5714
5775 5776 5776 5777 5777 5777 5776 5775 5773 5770 5767 5764 5763 5761 5757 5754 5752 5748 5745 5743 5741 5739 5737 5735 5734 5733 5733 5732 5730 5728 5726 5724 5722 5720 5719 5717 5716 5716 5714 5712 5710 5709 5709
5773 5774 5774 5774 5773 5772 5771 5769 5766 5763 5761 5760 5759 5757 5755 5751 5748 5744 5742 5740 5737 5735 5733 5731 5730 5729 5728 5727 5726 5724 5721 5719 5718 5717 5716 5714 5712 5712 5710 5707 5705 5704 5704
5767 5768 5768 5767 5766 5766 5765 5761 5758 5756 5755 5755 5755 5753 5752 5749 5745 5742 5738 5736 5733 5730 5728 5726 5726 5725 5724 5723 5722 5720 5717 5714 5713 5712 5711 5710 5709 5707 5705 5702 5700 5697 5698
5760 5762 5761 5758 5758 5759 5758 5754 5752 5750 5751 5751 5749 5747 5746 5744 5741 5737 5734 5730 5727 5724 5722 5720 5720 5719 5719 5719 5717 5716 5713 5711 5709 5707 5706 5705 5704 5703 5701 5699 5697 5695 5694
5751 5753 5751 5749 5750 5752 5750 5747 5745 5747 5747 5745 5742 5740 5739 5737 5735 5731 5727 5724 5721 5718 5715 5714 5713 5713 5713 5712 5712 5710 5709 5708 5705 5703 5702 5700 5699 5697 5695 5692 5691 5689 5687
5744 5745 5743 5742 5742 5744 5743 5741 5741 5742 5740 5738 5735 5733 5732 5730 5728 5725 5721 5718 5715 5712 5709 5708 5706 5705 5706 5706 5706 5705 5703 5702 5699 5698 5696 5694 5691 5689 5687 5685 5683 5680 5677
5736 5736 5734 5733 5733 5735 5736 5736 5736 5735 5734 5731 5728 5726 5724 5722 5720 5718 5716 5712 5709 5706 5705 5702 5700 5699 5699 5699 5699 5698 5696 5694 5691 5689 5687 5685 5683 5680 5678 5676 5673 5671 5669
5727 5728 5726 5725 5725 5727 5728 5729 5729 5729 5726 5723 5721 5718 5717 5714 5710 5707 5704 5703 5701 5700 5699 5697 5696 5693 5692 5691 5692 5691 5689 5687 5684 5681 5678 5675 5672 5669 5667 5664 5662 5660 5657
5718 5718 5717 5717 5716 5718 5719 5720 5721 5719 5717 5715 5713 5711 5709 5706 5702 5698 5693 5690 5690 5690 5690 5689 5688 5686 5684 5684 5683 5682 5680 5678 5676 5673 5667 5663 5660 5658 5655 5653 5650 5647 5645